Location: Newark
(51.3318°N, 0.0053°E)
Time: 13:17:19
(UTC+00:00)

Sep Motor Cover - Visible Passes

Search period start: 08 December 2022 00:00
Search period end: 18 December 2022 00:00
Orbit: 664 x 833 km, 71.0° (Epoch: 07 December)

Date Brightness Start Highest point End Pass type
(mag) Time Alt. Az. Time Alt. Az. Time Alt. Az.
08 Dec 8.5 16:34:03 10° WNW 16:37:28 18° NNW 16:41:00 10° N visible
09 Dec 8.9 17:37:30 10° NNW 17:38:02 10° NNW 17:38:34 10° N visible
10 Dec 8.8 16:52:02 10° NW 16:54:12 12° NNW 16:56:25 10° N visible
14 Dec 9.0 19:09:43 10° N 19:10:09 11° N 19:10:09 11° N visible
15 Dec 8.8 18:27:02 10° N 18:28:04 11° N 18:28:04 11° N visible
16 Dec 9.0 19:25:12 10° NNW 19:25:51 12° N 19:25:51 12° N visible
17 Dec 8.7 18:42:23 10° N 18:43:48 14° N 18:43:48 14° N visible
